Change the Weather History Date:

Sunday, April 7, 2013

  Actual Average Record
Temperature  
Mean Temperature 65 °F -  
Max Temperature 77 °F 62 °F 80 °F (2001)
Min Temperature 53 °F 42 °F 26 °F (2007)
Growing Degree Days 15 (Base 50)    
Moisture  
Dew Point 50 °F    
Average Humidity 61    
Maximum Humidity 82    
Minimum Humidity 44    
Precipitation  
Precipitation 0.07 in - - ()
Sea Level Pressure  
Sea Level Pressure 29.92 in    
Wind  
Wind Speed 12 mph (SSW)    
Max Wind Speed 20 mph    
Max Gust Speed 26 mph    
Visibility 10 miles    
Events      
Averages and records for this station are not official NWS values.
T = Trace of Precipitation, MM = Missing Value Source: NWS Daily Summary

Daily Weather History Graph

Daily Weather History Graph

Search for Another Location

Airport or City:

Trip Planner

Search our weather history database for the weather conditions in past years. The results will help you decide how hot, cold, wet, or windy it might be!

Date:

Astronomy

Apr. 07, 2013 Rise Set
Actual Time 6:30 AM CDT 7:24 PM CDT
Civil Twilight 6:04 AM CDT 7:51 PM CDT
Nautical Twilight 5:32 AM CDT 8:23 PM CDT
Astronomical Twilight 4:59 AM CDT 8:56 PM CDT
Moon 4:46 AM CDT (4/7) 4:58 PM CDT (4/7)
Length of Visible Light 13h 47m
Length of Day
12h 53m
Waning Crescent, 8% of the Moon is Illuminated
Apr 7
Waning Crescent
Apr 10
New
Apr 18
First Quarter
Apr 25
Full
May 2
Last Quarter

Hourly Weather History & Observations

Time (CDT) Temp. Dew Point Humidity Pressure Visibility Wind Dir Wind Speed Gust Speed Precip Events Conditions
12:15 AM 62.6 °F 42.8 °F 48% 29.87 in 10.0 mi SSW 19.6 mph 24.2 mph N/A   Clear
12:35 AM 60.8 °F 42.8 °F 52% 29.88 in 10.0 mi SSW 18.4 mph 26.5 mph N/A   Clear
12:55 AM 60.8 °F 42.8 °F 52% 29.88 in 10.0 mi SSW 17.3 mph - N/A   Clear
1:15 AM 60.8 °F 44.6 °F 55% 29.88 in 10.0 mi SSW 15.0 mph - N/A   Clear
1:35 AM 60.8 °F 44.6 °F 55% 29.88 in 10.0 mi SSW 17.3 mph - N/A   Clear
1:55 AM 60.8 °F 42.8 °F 52% 29.87 in 10.0 mi SSW 16.1 mph - N/A   Clear
2:15 AM 60.8 °F 42.8 °F 52% 29.87 in 10.0 mi SSW 15.0 mph - N/A   Partly Cloudy
2:35 AM 60.8 °F 44.6 °F 55% 29.86 in 10.0 mi SSW 17.3 mph - N/A   Mostly Cloudy
2:55 AM 60.8 °F 44.6 °F 55% 29.86 in 10.0 mi SSW 15.0 mph - N/A   Overcast
3:15 AM 60.8 °F 44.6 °F 55% 29.87 in 10.0 mi SSW 13.8 mph - N/A   Overcast
3:35 AM 62.6 °F 44.6 °F 52% 29.87 in 10.0 mi SW 15.0 mph 21.9 mph N/A   Overcast
3:55 AM 62.6 °F 44.6 °F 52% 29.88 in 10.0 mi SW 17.3 mph 21.9 mph N/A   Overcast
4:15 AM 60.8 °F 44.6 °F 55% 29.88 in 10.0 mi SW 13.8 mph - N/A   Overcast
4:35 AM 59.0 °F 44.6 °F 59% 29.89 in 10.0 mi SW 12.7 mph - N/A   Partly Cloudy
4:55 AM 57.2 °F 44.6 °F 63% 29.90 in 10.0 mi SW 9.2 mph - N/A   Clear
5:15 AM 57.2 °F 44.6 °F 63% 29.90 in 10.0 mi SW 9.2 mph - N/A   Mostly Cloudy
5:35 AM 55.4 °F 44.6 °F 67% 29.91 in 10.0 mi SW 3.5 mph - N/A   Overcast
5:55 AM 55.4 °F 44.6 °F 67% 29.91 in 10.0 mi SW 4.6 mph - N/A   Overcast
6:15 AM 53.6 °F 44.6 °F 72% 29.92 in 10.0 mi SW 4.6 mph - N/A   Mostly Cloudy
6:35 AM 53.6 °F 44.6 °F 72% 29.93 in 10.0 mi SW 4.6 mph - N/A   Mostly Cloudy
6:55 AM 53.6 °F 44.6 °F 72% 29.94 in 10.0 mi SSW 4.6 mph - N/A   Mostly Cloudy
7:15 AM 53.6 °F 46.4 °F 77% 29.94 in 10.0 mi SSW 5.8 mph - N/A   Mostly Cloudy
7:35 AM 57.2 °F 46.4 °F 67% 29.95 in 10.0 mi SSW 8.1 mph - N/A   Mostly Cloudy
7:55 AM 59.0 °F 48.2 °F 67% 29.95 in 9.0 mi SSW 8.1 mph - N/A   Overcast
8:15 AM 59.0 °F 48.2 °F 67% 29.96 in 10.0 mi SSW 10.4 mph - N/A   Mostly Cloudy
8:35 AM 60.8 °F 48.2 °F 63% 29.96 in 10.0 mi SSW 10.4 mph - N/A   Overcast
8:55 AM 62.6 °F 48.2 °F 59% 29.96 in 10.0 mi SSW 12.7 mph - N/A   Overcast
9:15 AM 62.6 °F 48.2 °F 59% 29.96 in 10.0 mi SW 9.2 mph - N/A   Scattered Clouds
9:35 AM 64.4 °F 48.2 °F 56% 29.96 in 10.0 mi SW 9.2 mph - N/A   Mostly Cloudy
9:55 AM 64.4 °F 48.2 °F 56% 29.96 in 10.0 mi WSW 9.2 mph - N/A   Scattered Clouds
10:15 AM 64.4 °F 48.2 °F 56% 29.96 in 10.0 mi WSW 5.8 mph - N/A   Scattered Clouds
10:35 AM 66.2 °F 48.2 °F 52% 29.96 in 10.0 mi SW 5.8 mph - N/A   Mostly Cloudy
10:55 AM 66.2 °F 50.0 °F 56% 29.97 in 10.0 mi WSW 5.8 mph - N/A   Mostly Cloudy
11:15 AM 69.8 °F 51.8 °F 53% 29.97 in 10.0 mi Calm Calm - N/A   Mostly Cloudy
12:15 PM 71.6 °F 51.8 °F 50% 29.96 in 10.0 mi SW 5.8 mph - N/A   Mostly Cloudy
12:35 PM 71.6 °F 51.8 °F 50% 29.96 in 10.0 mi SSW 5.8 mph - N/A   Mostly Cloudy
12:55 PM 73.4 °F 51.8 °F 47% 29.96 in 10.0 mi SSW 10.4 mph - N/A   Mostly Cloudy
1:15 PM 73.4 °F 51.8 °F 47% 29.95 in - South 10.4 mph - N/A   Unknown
1:35 PM 73.4 °F 51.8 °F 47% 29.95 in 10.0 mi South 10.4 mph - N/A   Scattered Clouds
1:55 PM 75.2 °F 53.6 °F 47% 29.95 in 10.0 mi South 11.5 mph - N/A   Scattered Clouds
2:15 PM 75.2 °F 53.6 °F 47% 29.94 in 10.0 mi South 10.4 mph - N/A   Mostly Cloudy
2:35 PM 77.0 °F 53.6 °F 44% 29.93 in 10.0 mi SSW 11.5 mph 18.4 mph N/A   Partly Cloudy
2:55 PM 77.0 °F 53.6 °F 44% 29.93 in 10.0 mi SSW 11.5 mph 16.1 mph N/A   Mostly Cloudy
3:15 PM 75.2 °F 53.6 °F 47% 29.93 in 10.0 mi SSW 13.8 mph - N/A   Mostly Cloudy
3:35 PM 75.2 °F 53.6 °F 47% 29.92 in 10.0 mi SSW 10.4 mph - N/A   Mostly Cloudy
3:55 PM 73.4 °F 53.6 °F 50% 29.91 in 10.0 mi SSW 8.1 mph - N/A   Mostly Cloudy
4:15 PM 73.4 °F 53.6 °F 50% 29.91 in 10.0 mi South 9.2 mph - N/A   Overcast
4:35 PM 73.4 °F 55.4 °F 53% 29.90 in 10.0 mi South 11.5 mph - N/A   Mostly Cloudy
4:55 PM 73.4 °F 53.6 °F 50% 29.90 in 10.0 mi South 12.7 mph - N/A   Mostly Cloudy
5:15 PM 71.6 °F 53.6 °F 53% 29.90 in 10.0 mi South 12.7 mph 17.3 mph N/A   Overcast
5:35 PM 71.6 °F 53.6 °F 53% 29.90 in 10.0 mi South 12.7 mph 20.7 mph N/A   Overcast
5:55 PM 69.8 °F 55.4 °F 60% 29.91 in 10.0 mi South 10.4 mph - N/A   Overcast
6:15 PM 66.2 °F 55.4 °F 68% 29.90 in 10.0 mi South 16.1 mph 19.6 mph 0.01 in   Overcast
6:35 PM 64.4 °F 51.8 °F 64% 29.91 in 7.0 mi North 5.8 mph 24.2 mph 0.07 in   Overcast
6:55 PM 60.8 °F 55.4 °F 82% 29.92 in 10.0 mi North 4.6 mph - 0.07 in   Overcast
7:15 PM 60.8 °F 55.4 °F 82% 29.92 in 10.0 mi Calm Calm - N/A   Overcast
7:35 PM 60.8 °F 55.4 °F 82% 29.91 in 10.0 mi Calm Calm - N/A   Overcast
7:55 PM 60.8 °F 55.4 °F 82% 29.91 in 10.0 mi South 4.6 mph - N/A   Overcast
8:15 PM 60.8 °F 55.4 °F 82% 29.91 in 10.0 mi Calm Calm - N/A   Mostly Cloudy
8:35 PM 64.4 °F 55.4 °F 73% 29.92 in 10.0 mi South 5.8 mph - N/A   Mostly Cloudy
8:55 PM 64.4 °F 55.4 °F 73% 29.93 in 10.0 mi South 10.4 mph 16.1 mph N/A   Overcast
9:15 PM 64.4 °F 55.4 °F 73% 29.93 in 10.0 mi South 8.1 mph - N/A   Mostly Cloudy
9:35 PM 64.4 °F 55.4 °F 73% 29.94 in 10.0 mi South 8.1 mph - N/A   Partly Cloudy
9:55 PM 64.4 °F 55.4 °F 73% 29.94 in 10.0 mi SSE 9.2 mph - N/A   Clear
10:15 PM 64.4 °F 55.4 °F 73% 29.93 in 10.0 mi SSE 10.4 mph - N/A   Clear
10:35 PM 62.6 °F 53.6 °F 72% 29.94 in 10.0 mi SSE 8.1 mph - N/A   Mostly Cloudy
10:55 PM 62.6 °F 53.6 °F 72% 29.93 in 10.0 mi South 6.9 mph - N/A   Mostly Cloudy
11:15 PM 62.6 °F 55.4 °F 77% 29.94 in 10.0 mi South 8.1 mph - N/A   Mostly Cloudy
11:35 PM 62.6 °F 53.6 °F 72% 29.94 in 10.0 mi South 6.9 mph - N/A   Overcast
11:55 PM 62.6 °F 53.6 °F 72% 29.93 in 10.0 mi South 6.9 mph - N/A   Mostly Cloudy